Regional Weather Roundup
Issued by NWS State College, PA

Home | Current Version | Previous Version | Text Only | Print | Product List | Glossary On
Versions: 1 2 3 4 5 6 7 8 9 10 11 12 13 14 15 16 17 18 19 20 21 22 23 24 25 26 27 28 29 30 31 32 33 34 35 36 37 38 39 40 41 42 43 44 45 46 47 48 49 50
000
ASUS41 KCTP 250610
RWRCTP

REGIONAL WEATHER ROUNDUP
NATIONAL WEATHER SERVICE STATE COLLEGE PA
200 AM EDT SAT APR 25 2015

Note: "fair" indicates few or no clouds below 12,000 feet with no
significant weather and/or obstructions to visibility.

* = STATION THAT DOES NOT REPORT PRECIPITATION /E.G. RAIN...SNOW...ETC/
    THUNDER OR FOG.

PAZ002>004-007>009-013>016-020>023-029>032-250700-
WESTERN PENNSYLVANIA

CITY           SKY/WX    TMP DP  RH WIND       PRES   REMARKS
ERIE           FAIR      32  22  66 CALM      29.99F
MEADVILLE      FAIR      34  20  56 CALM      29.97S
FRANKLIN*      FAIR      32  16  51 CALM      29.98F
NEW CASTLE     FAIR      33  20  59 CALM      30.00F
BEAVER COUNTY  NOT AVBL
BUTLER*        FAIR      32  19  59 CALM      30.00S
PITTSBURGH INT CLOUDY    40  19  43 E3        29.98F
PITTSBURGH     MOCLDY    39  15  37 VRB6      29.97F
INDIANA*       CLOUDY    32  19  59 CALM      30.01S
LATROBE        FAIR      34  25  69 CALM      30.01S
WASHINGTON CO* CLOUDY    37  30  75 CALM      29.99F
$$

PAZ004>006-010>012-017>019-024>028-033>037-041-042-045-046-049>053-250700-
CENTRAL PENNSYLVANIA

CITY           SKY/WX    TMP DP  RH WIND       PRES   REMARKS
BRADFORD       FAIR      27  17  66 CALM      29.93F
DUBOIS         FAIR      33  15  47 N3        29.94F
CLEARFIELD     FAIR      33  16  49 NW7       29.96F
JOHNSTOWN      FAIR      33  13  43 N3        29.93S
ALTOONA        FAIR      36  12  37 NW6G17    29.97S
STATE COLLEGE  FAIR      34  16  46 CALM      29.96F
WILLIAMSPORT   FAIR      35  21  56 W7        29.96S
SELINSGROVE    FAIR      31  25  78 CALM      29.98S
FT INDIANTOWN  FAIR      37  19  48 VRB2      29.96S
CAPITAL CITY   FAIR      42  11  28 W3        29.97S
HARRISBURG     FAIR      41  15  35 N5        29.96S
YORK           FAIR      34  20  56 N6        29.96S
$$

PAZ038>040-043-044-047-048-054-055-060>062-067>071-250700-
EASTERN PENNSYLVANIA

CITY           SKY/WX    TMP DP  RH WIND       PRES   REMARKS
SCRANTON       FAIR      33  24  69 N5        29.91F
MOUNT POCONO   FAIR      31  20  63 NW9       29.85F
ALLENTOWN      FAIR      33  21  61 SW6       29.94S
QUAKERTOWN*    FAIR      32  23  69 CALM      29.95R
READING        FAIR      37  20  50 W5        29.96R
LANCASTER      FAIR      35  21  56 N5        29.96R
COATESVILLE    FAIR      37  21  52 CALM      29.96S
POTTSTOWN      FAIR      31  23  72 CALM      29.97R
BLUE BELL      FAIR      34  27  75 CALM      29.95S
DOYLESTOWN     FAIR      32  22  66 CALM      29.94S
WILLOW GROVE   NOT AVBL
NORTH PHILA    FAIR      39  20  46 W5        29.98R
PHILADELPHIA   FAIR      43  20  39 NW8       29.98R
$$


USA.gov is the U.S. government's official web portal to all federal, state and local government web resources and services.